Date,TemperatureHighF,TemperatureAvgF,TemperatureLowF,DewpointHighF,DewpointAvgF,DewpointLowF,HumidityHigh,HumidityAvg,HumidityLow,PressureMaxIn,PressureMinIn,WindSpeedMaxMPH,WindSpeedAvgMPH,GustSpeedMaxMPH,PrecipitationSumIn
2014-1-1,10.4,6.5,3.2,-9.1,-13.1,-18.5,46,39,28,30.20,30.09,8,4,15,0.00
2014-1-2,39.0,5.4,-10.1,21.2,-15.6,-99.9,64,37,20,30.27,29.27,8,3,13,0.00
2014-1-3,27.3,9.1,-13.2,7.7,-12.3,-32.9,47,36,19,29.89,29.11,7,2,14,0.00
2014-1-4,35.1,20.9,8.1,16.6,0.3,-15.6,48,40,32,29.63,29.10,9,5,16,0.00
2014-1-5,8.2,-0.5,-13.0,-14.8,-28.8,-47.1,36,25,12,29.84,29.62,11,6,20,0.00
2014-1-6,-3.6,-10.5,-18.8,-26.5,-39.8,-53.2,32,21,10,29.84,29.73,10,5,21,0.00
2014-1-7,9.0,0.1,-9.8,-16.8,-23.8,-34.2,39,30,22,29.74,29.58,8,2,12,0.00
2014-1-8,12.4,3.4,-3.3,-18.3,-22.0,-34.1,42,30,10,29.94,29.72,4,1,8,0.00
2014-1-9,21.9,9.2,-5.3,9.2,-9.7,-25.0,60,42,19,29.92,29.47,4,1,8,0.00
2014-1-10,34.2,29.6,20.1,28.4,23.7,8.1,85,78,59,29.49,28.99,5,1,9,0.15
2014-1-11,32.4,28.8,22.8,27.4,19.2,10.2,84,68,42,29.30,28.99,8,4,16,0.00
2014-1-12,45.0,36.0,21.7,24.2,17.6,13.5,76,49,31,29.27,28.95,8,3,14,0.00
2014-1-13,40.1,35.3,29.5,23.7,15.2,6.5,61,44,28,29.25,29.05,8,3,15,0.00
2014-1-14,37.4,26.8,12.2,25.6,8.0,-5.9,65,45,32,29.58,29.02,14,6,27,0.04
2014-1-15,27.0,16.5,5.7,1.6,-6.6,-15.8,45,35,23,29.66,29.10,8,3,14,0.00
2014-1-16,36.1,24.8,4.6,18.9,1.1,-19.1,51,35,21,29.39,29.00,12,6,23,0.00
2014-1-17,20.7,11.3,3.9,-5.1,-11.4,-18.9,45,35,22,29.51,29.37,10,3,17,0.00
2014-1-18,23.0,16.7,7.7,8.2,-2.5,-9.1,57,42,28,29.45,29.00,6,2,12,0.00
2014-1-19,44.8,32.9,14.9,19.0,10.8,0.2,56,41,24,29.35,29.04,8,3,14,0.07
2014-1-20,40.5,27.7,5.2,21.3,13.1,-11.1,68,54,36,29.78,29.23,10,4,17,0.00
2014-1-21,9.3,2.5,-7.1,-11.1,-24.2,-41.9,46,28,11,29.91,29.53,8,2,15,0.00
2014-1-22,18.7,7.9,-6.3,-1.2,-14.3,-30.6,46,35,22,29.92,29.43,11,5,18,0.00
2014-1-23,4.1,-3.5,-10.8,-21.5,-29.0,-38.7,40,28,13,30.19,29.91,8,3,14,0.00
2014-1-24,36.7,21.6,-3.1,28.3,-8.7,-26.8,73,28,11,29.92,29.02,10,4,22,0.01
2014-1-25,35.8,19.9,12.4,23.3,-13.0,-33.4,60,25,10,29.43,29.05,12,4,20,0.00
2014-1-26,39.0,23.3,-0.9,18.7,0.1,-29.6,54,36,21,29.60,28.85,15,6,28,0.01
2014-1-27,32.4,-2.2,-9.0,21.2,-29.8,-44.7,64,25,10,29.97,29.37,12,4,24,0.28
2014-1-28,13.6,1.8,-8.5,-21.1,-29.1,-38.2,35,23,10,29.95,29.72,8,2,15,0.00
2014-1-29,34.5,18.6,-1.3,-9.0,-20.4,-30.3,30,17,10,29.73,29.21,8,3,15,0.00
2014-1-30,39.2,24.6,5.0,22.9,-3.3,-17.6,68,33,12,29.59,28.98,11,5,21,0.00
2014-1-31,39.0,12.0,1.4,21.2,-17.0,-99.9,64,28,10,30.00,29.59,8,2,13,0.28
2014-2-1,25.5,13.8,5.7,4.0,-4.7,-15.2,53,43,28,30.03,29.74,6,2,11,0.00
2014-2-2,16.3,3.7,-7.4,-12.6,-20.6,-30.8,45,32,13,30.17,30.02,6,2,11,0.00
2014-2-3,28.2,12.4,-3.3,-4.5,-13.7,-24.1,46,32,10,30.11,30.05,4,1,8,0.00
2014-2-4,20.7,16.0,8.6,3.2,-1.1,-5.3,55,47,34,30.17,30.03,8,3,14,0.00
2014-2-5,10.6,4.6,-5.1,-3.2,-15.7,-26.2,54,38,21,30.34,30.06,10,5,17,0.00
2014-2-6,10.4,-0.2,-10.7,-16.4,-25.4,-33.8,42,29,14,30.32,30.17,9,4,17,0.00
2014-2-7,18.9,6.1,-8.9,-14.6,-22.7,-31.7,42,27,10,30.17,30.01,7,2,12,0.00
2014-2-8,23.7,14.1,9.1,-1.5,-5.7,-16.3,54,41,28,30.02,29.85,3,1,7,0.00
2014-2-9,32.0,2.3,-7.2,-4.8,-20.0,-27.6,52,35,10,30.19,29.95,6,3,12,0.00
2014-2-10,7.0,-4.4,-12.3,-24.7,-30.5,-40.9,38,28,10,30.31,30.18,6,2,11,0.00
2014-2-11,17.8,0.5,-21.3,-12.5,-28.9,-43.1,38,25,10,30.30,29.99,4,1,11,0.00
2014-2-12,28.4,16.0,5.5,4.4,-4.5,-13.9,57,41,22,29.99,29.69,5,2,10,0.00
2014-2-13,43.7,24.7,11.3,13.5,3.9,-7.6,60,42,23,29.70,29.37,10,3,22,0.08
2014-2-14,17.6,10.6,-1.5,-2.2,-8.9,-18.0,53,41,26,29.88,29.51,8,3,14,0.00
2014-2-15,25.0,9.8,-6.5,9.6,-7.6,-23.0,53,45,30,29.87,29.62,7,1,11,0.00
2014-2-16,29.1,21.6,16.5,8.0,0.5,-15.2,53,41,14,30.03,29.78,7,3,14,0.01
2014-2-17,43.0,29.4,19.8,19.2,10.3,1.8,64,45,27,29.86,29.52,11,4,23,0.15
2014-2-18,51.6,37.7,22.8,22.1,9.9,-4.1,58,35,10,29.67,29.39,7,2,11,0.02
2014-2-19,47.1,36.5,27.5,21.6,17.8,13.0,65,48,28,29.73,29.51,6,2,11,0.00
2014-2-20,39.0,33.9,30.0,31.3,28.4,20.0,87,80,52,29.51,28.94,20,6,34,0.47
2014-2-21,33.3,24.3,16.2,24.9,1.5,-13.3,81,40,16,29.67,29.30,15,6,28,0.00
2014-2-22,33.3,21.6,13.1,8.0,-6.8,-22.4,52,30,10,29.96,29.67,5,2,9,0.05
2014-2-23,25.0,15.7,8.1,-3.8,-11.6,-27.7,42,31,10,30.12,29.96,8,3,14,0.00
2014-2-24,21.4,12.9,5.4,-1.3,-11.3,-27.7,55,35,12,30.19,30.06,7,2,12,0.00
2014-2-25,13.8,6.5,-2.6,-1.6,-19.0,-34.6,55,32,10,30.18,30.08,10,4,17,0.01
2014-2-26,24.8,8.5,-7.4,-2.6,-21.0,-34.4,43,26,10,30.18,29.57,11,4,21,0.00
2014-2-27,11.5,0.5,-7.6,-15.2,-34.5,-45.7,30,18,10,30.01,29.71,10,3,17,0.00
2014-2-28,36.3,15.7,-7.1,10.0,-10.3,-30.9,62,33,10,29.89,29.66,5,3,14,0.00
2014-3-1,19.8,6.5,-1.7,7.2,-10.1,-18.8,61,46,34,30.26,29.88,8,5,14,0.00
2014-3-2,30.0,1.1,-7.2,-9.3,-23.2,-39.4,44,31,10,30.30,29.30,7,4,14,0.00
2014-3-3,27.9,4.2,-14.1,-5.6,-26.6,-39.3,45,25,10,29.92,29.30,4,1,10,0.00
2014-3-4,29.7,17.9,5.5,-1.2,-13.0,-27.2,42,27,10,29.65,29.49,8,2,13,0.02
2014-3-5,24.4,20.7,17.8,3.3,1.0,-2.3,51,42,34,29.78,29.59,11,6,16,0.00
2014-3-6,36.1,24.3,16.2,12.1,3.0,-7.7,54,41,15,29.75,29.34,7,2,14,0.00
2014-3-7,43.0,32.9,26.4,22.0,15.3,10.3,62,48,33,29.51,29.21,8,4,14,0.00
2014-3-8,38.1,28.0,16.5,17.1,10.0,3.6,64,48,27,29.71,29.50,6,3,11,0.00
2014-3-9,48.0,33.3,14.0,20.7,11.9,1.6,62,43,22,29.67,27.32,7,3,11,0.00
2014-3-10,57.4,46.3,37.8,28.2,18.1,6.2,64,35,15,29.18,29.10,5,2,10,0.00
2014-3-11,43.2,38.6,27.7,28.8,22.3,-11.7,66,52,16,30.15,29.09,10,4,17,0.00
2014-3-12,37.4,30.3,23.7,15.3,6.1,-6.2,52,37,18,30.37,30.16,9,4,17,0.00
2014-3-13,64.6,42.1,22.8,19.8,13.7,2.5,59,36,10,30.34,29.93,7,2,13,0.00
2014-3-14,52.0,43.9,35.4,20.7,15.4,5.8,53,32,18,30.22,29.84,11,4,23,0.00
2014-3-15,43.5,33.7,27.7,24.0,14.8,-1.1,74,49,17,30.48,30.21,11,3,19,0.00
2014-3-16,35.1,25.9,19.2,16.9,-0.5,-21.0,63,34,10,30.48,29.57,10,3,16,0.01
2014-3-17,50.5,31.8,19.0,9.8,2.0,-9.8,54,31,10,29.78,29.29,7,2,14,0.00
2014-3-18,55.4,40.3,32.7,31.2,16.6,7.3,77,40,19,29.34,29.24,10,2,18,0.09
2014-3-19,41.9,34.9,29.7,33.5,20.8,10.2,81,58,33,29.71,29.31,8,3,17,0.01
2014-3-20,55.2,38.2,26.2,26.0,15.6,-4.0,74,44,10,29.75,29.60,6,2,11,0.00
2014-3-21,42.4,18.4,-6.9,22.1,-2.3,-44.5,57,41,11,29.87,29.48,5,2,10,0.00
2014-3-22,34.3,26.4,10.8,7.5,-6.6,-22.7,47,25,10,30.19,29.62,9,5,17,0.14
2014-3-23,35.8,24.7,14.2,1.6,-10.6,-24.9,42,23,10,30.25,30.09,6,2,11,0.00
2014-3-24,38.3,28.5,21.9,21.5,10.2,-1.1,67,46,33,30.10,29.85,7,2,11,0.04
2014-3-25,30.9,23.1,15.8,10.4,-6.4,-26.5,54,30,10,30.05,29.86,11,4,18,0.00
2014-3-26,52.2,34.5,13.8,24.6,-3.6,-15.8,50,25,10,29.94,29.47,9,3,24,0.01
2014-3-27,51.3,42.6,36.3,46.0,35.5,24.6,84,76,45,29.49,29.01,10,3,17,0.53
2014-3-28,39.0,35.1,26.4,29.0,20.2,-17.9,75,56,13,30.14,29.35,11,2,17,0.73
2014-3-29,59.5,41.2,30.7,21.6,11.8,-4.7,62,36,10,30.23,30.11,5,2,8,0.01
2014-3-30,72.3,51.2,33.8,21.6,14.3,0.7,56,29,10,30.12,29.78,8,2,15,0.00
2014-3-31,76.3,53.0,29.5,38.1,19.5,3.8,57,30,10,29.78,29.34,13,4,26,0.12
2014-4-1,45.7,34.2,22.5,21.6,6.2,-2.0,51,31,17,30.03,29.68,14,6,28,0.01
2014-4-2,51.8,41.2,29.1,23.6,14.7,1.1,66,39,13,30.08,29.85,16,6,24,0.00
2014-4-3,49.5,41.3,36.1,36.0,30.2,17.5,84,65,35,29.86,29.49,14,7,24,0.13
2014-4-4,43.3,36.5,29.7,34.6,20.2,9.9,85,54,25,30.05,29.49,12,6,21,0.05
2014-4-5,63.9,42.2,24.1,24.1,11.2,-5.2,70,36,10,30.14,29.98,4,2,9,0.00
2014-4-6,67.1,49.7,36.9,31.6,20.2,4.5,50,33,10,29.99,29.82,6,2,11,0.00
2014-4-7,66.0,50.0,33.4,36.2,23.7,2.8,64,40,10,29.84,29.66,8,2,13,0.06
2014-4-8,57.4,46.7,37.0,28.0,16.8,-3.1,63,35,10,29.97,29.73,10,4,16,0.00
2014-4-9,74.1,53.3,28.4,24.4,12.7,0.5,66,28,10,29.97,29.62,9,3,16,0.00
2014-4-10,68.0,56.9,41.5,29.7,11.6,-4.1,45,19,10,29.94,29.54,11,4,17,0.00
2014-4-11,79.0,57.2,37.4,20.8,11.3,-3.1,47,20,10,29.98,29.83,11,2,20,0.00
2014-4-12,89.1,67.6,47.5,51.9,20.9,-1.1,84,20,10,29.86,29.44,15,2,23,1.39
2014-4-13,58.6,47.0,35.4,55.0,44.2,30.9,96,90,83,29.67,29.48,13,5,23,1.54
2014-4-14,41.2,33.0,29.1,30.9,13.3,-13.6,93,52,10,30.06,29.59,12,6,19,0.02
2014-4-15,49.8,33.9,24.6,10.7,-3.5,-20.4,46,24,10,30.14,29.99,7,2,14,0.00
2014-4-16,64.4,48.7,32.9,28.5,5.4,-4.9,50,20,10,29.99,29.73,9,4,17,0.00
2014-4-17,54.0,40.5,33.3,30.5,16.7,-2.4,60,42,10,30.26,29.83,12,4,20,0.00
2014-4-18,69.3,47.0,26.1,24.0,10.6,-4.8,70,31,10,30.32,30.14,8,2,13,0.00
2014-4-19,80.2,59.6,37.9,27.0,15.4,0.2,58,22,10,30.19,29.98,8,3,16,0.00
2014-4-20,87.6,68.8,52.7,37.4,23.7,14.0,54,21,10,30.03,29.85,6,2,11,0.05
2014-4-21,73.0,62.6,48.6,49.6,34.9,8.9,68,39,10,29.98,29.87,10,3,17,0.00
2014-4-22,68.4,52.8,38.3,24.6,12.5,-0.9,51,24,10,30.08,29.97,9,3,15,0.00
2014-4-23,53.1,46.9,42.8,33.1,18.9,-2.6,62,36,10,30.06,29.78,13,6,22,0.20
2014-4-24,54.7,48.3,43.9,46.2,36.9,29.8,77,65,51,29.81,29.60,11,4,21,0.54
2014-4-25,80.1,58.7,38.7,42.0,24.6,6.3,82,39,10,29.81,29.71,7,2,14,0.01
2014-4-26,70.9,57.2,44.8,30.4,17.8,4.8,55,26,10,29.87,29.69,20,8,30,0.00
2014-4-27,65.3,51.9,41.7,50.2,33.6,16.0,80,52,22,29.80,29.41,22,12,34,0.69
2014-4-28,54.0,51.0,48.6,47.9,44.6,40.6,86,79,67,29.50,28.39,21,11,58,0.40
2014-4-29,49.6,44.6,36.1,46.2,41.2,30.6,96,88,79,29.65,29.37,8,4,17,0.06
2014-4-30,41.9,39.3,35.6,37.2,32.4,28.9,88,76,66,29.73,29.64,6,4,16,0.26
2014-5-1,50.7,44.5,40.3,36.7,32.7,27.7,81,64,41,29.85,29.67,6,4,16,0.01
2014-5-2,69.6,53.8,0.0,46.4,27.8,5.6,72,45,10,29.84,29.56,8,3,19,0.00
2014-5-3,70.2,56.6,0.0,50.7,41.5,35.3,82,59,31,30.00,29.63,8,4,21,0.00
2014-5-4,62.4,51.7,44.6,42.0,39.4,35.3,86,64,45,30.13,29.93,11,4,18,0.00
2014-5-5,70.5,57.2,43.5,42.8,38.0,30.9,68,50,34,29.99,29.92,11,6,22,0.00
2014-5-6,73.8,56.5,0.0,46.0,41.0,34.1,73,57,35,29.98,29.89,13,8,29,0.00
2014-5-7,92.3,72.8,53.6,68.4,57.6,42.2,76,60,42,29.91,29.78,12,3,19,0.00
2014-5-8,82.8,74.2,62.6,66.8,64.4,60.1,93,72,58,29.92,29.81,5,2,14,0.08
2014-5-9,70.0,56.7,48.4,61.0,44.9,35.1,95,67,30,30.05,29.82,8,4,20,0.01
2014-5-10,84.6,62.3,43.2,53.7,45.0,37.6,88,58,21,30.09,29.93,4,1,14,0.00
2014-5-11,82.0,65.1,50.9,67.1,60.5,48.5,97,85,57,30.13,29.92,7,2,14,0.17
2014-5-12,75.0,62.7,49.3,63.3,57.9,44.1,97,85,63,30.10,29.86,8,2,20,0.83
2014-5-13,59.4,50.5,45.0,44.3,39.9,34.4,83,68,47,30.43,30.08,5,3,17,0.00
2014-5-14,62.6,52.4,35.4,44.8,37.7,28.9,78,59,40,30.45,30.26,3,1,10,0.00
2014-5-15,54.0,45.3,42.1,44.8,37.8,30.9,87,75,64,30.28,30.20,4,2,12,0.01
2014-5-16,56.3,47.2,34.9,39.7,33.9,25.2,81,61,33,30.31,30.23,3,1,8,0.01
2014-5-17,71.2,54.3,34.5,38.4,32.8,25.0,91,50,21,30.34,30.26,6,1,11,0.00
2014-5-18,76.3,61.5,44.8,47.8,39.2,34.8,72,47,25,30.38,30.22,4,2,11,0.00
2014-5-19,79.9,64.8,54.5,60.5,52.7,41.3,76,65,49,30.26,29.94,5,2,17,0.02
2014-5-20,90.0,75.0,62.2,66.4,59.3,53.5,85,60,35,30.05,29.91,6,1,14,0.00
2014-5-21,85.5,72.2,57.2,60.5,51.9,44.1,85,53,24,30.28,30.00,4,2,11,0.00
2014-5-22,85.5,65.6,50.2,51.1,46.0,34.8,85,54,18,30.43,30.26,3,1,9,0.00
2014-5-23,86.4,68.1,48.9,49.5,44.4,37.5,79,46,19,30.42,30.30,4,1,11,0.00
2014-5-24,85.8,67.7,51.4,54.0,50.1,43.8,80,56,29,30.39,30.24,4,2,12,0.00
2014-5-25,81.3,68.2,56.1,65.2,58.2,47.8,82,71,56,30.27,30.12,4,1,13,0.00
2014-5-26,86.0,72.6,63.3,61.8,57.8,47.1,85,62,34,30.19,30.08,4,1,14,0.02
2014-5-27,89.6,74.4,61.2,67.3,57.9,44.5,81,59,30,30.13,30.06,4,1,12,0.02
2014-5-28,84.0,72.1,0.0,62.1,55.7,49.0,76,57,35,30.21,29.91,4,2,14,0.00
2014-5-29,91.8,75.4,59.4,65.3,59.3,51.4,77,59,39,30.01,29.90,7,3,16,0.00
2014-5-30,93.6,78.7,63.1,66.1,61.3,51.2,78,57,37,30.05,29.95,5,2,14,0.00
2014-5-31,89.8,74.4,68.7,70.0,61.1,53.6,83,64,45,30.04,29.88,4,1,12,0.92
2014-6-1,91.2,78.4,67.1,69.0,55.2,19.3,96,51,10,29.90,29.67,5,1,15,0.01
2014-6-2,85.5,73.8,65.5,64.4,40.4,7.5,91,36,10,29.84,29.67,6,3,17,0.05
2014-6-3,85.5,70.5,59.2,63.0,54.6,6.4,84,60,10,29.95,29.73,2,1,11,0.39
2014-6-4,75.6,68.1,59.9,54.7,30.7,3.2,64,28,10,29.85,29.46,13,2,24,0.04
2014-6-5,80.6,68.6,56.1,60.1,34.7,0.3,77,36,10,29.92,29.81,6,1,15,0.00
2014-6-6,94.5,74.0,57.7,63.9,53.2,31.9,77,51,23,29.92,29.82,3,1,7,0.00
2014-6-7,75.0,67.8,61.3,60.7,51.8,43.0,83,58,39,29.93,29.81,4,0,11,0.08
2014-6-8,74.5,64.7,56.7,56.8,47.0,30.6,91,57,26,30.01,29.92,4,2,11,0.00
2014-6-9,78.4,67.1,57.0,56.3,43.3,1.0,93,46,10,29.95,29.82,5,2,11,0.00
2014-6-10,73.6,66.9,60.6,56.7,54.4,48.5,82,65,53,29.86,29.76,6,3,14,0.00
2014-6-11,93.2,74.4,57.6,58.5,53.2,42.7,79,51,26,29.77,29.66,4,1,14,0.00
2014-6-12,78.8,70.0,59.2,60.4,52.0,43.4,74,55,32,29.93,29.67,5,2,17,0.00
2014-6-13,87.8,67.9,50.4,49.5,44.7,38.1,83,48,18,30.02,29.87,4,1,9,0.00
2014-6-14,85.3,70.9,0.0,60.1,53.7,47.0,76,56,38,29.95,29.78,5,2,19,0.00
2014-6-15,88.2,75.0,67.3,64.5,59.2,52.9,75,59,37,29.97,29.59,6,2,17,0.00
2014-6-16,88.0,76.9,63.3,70.8,64.4,57.4,85,66,47,30.03,29.69,5,2,18,0.52
2014-6-17,89.4,77.3,62.8,71.4,43.5,5.3,65,35,10,29.94,29.74,4,1,11,0.85
2014-6-18,87.6,78.6,66.0,57.5,45.7,9.3,52,33,10,29.96,29.82,4,1,12,0.19
2014-6-19,77.5,71.0,65.3,55.0,19.7,8.5,56,18,10,30.02,29.88,11,2,27,1.10
2014-6-20,98.6,77.2,64.9,74.6,52.1,16.3,99,50,10,30.04,29.92,2,0,8,0.01
2014-6-21,94.8,79.0,68.5,71.2,63.1,49.3,76,59,36,29.99,29.88,3,1,10,0.01
2014-6-22,78.6,68.5,64.9,63.1,50.6,25.3,76,56,14,29.99,29.86,8,1,24,0.65
2014-6-23,87.3,73.5,66.2,72.2,48.2,13.4,99,54,10,29.94,29.87,2,0,7,0.00
2014-6-24,87.6,75.8,63.0,66.3,52.4,11.9,70,49,10,30.01,29.93,3,1,9,0.00
2014-6-25,91.0,77.8,63.1,67.8,60.7,45.9,77,57,33,30.07,29.99,2,1,9,0.00
2014-6-26,85.8,73.6,64.8,63.7,53.1,31.5,77,52,17,30.07,29.83,3,1,11,0.02
2014-6-27,77.7,71.9,66.7,73.5,60.8,31.9,99,71,19,29.86,29.75,3,1,14,0.78
2014-6-28,87.3,75.2,66.6,74.6,49.7,17.8,99,53,10,29.81,29.69,5,1,17,1.25
2014-6-29,88.7,74.5,63.0,73.2,51.7,13.6,99,56,10,29.88,29.69,4,1,17,0.11
2014-6-30,83.7,70.0,63.1,71.0,49.9,9.9,99,64,10,29.79,29.52,8,1,27,0.90
2014-7-1,75.6,67.3,62.6,64.5,35.8,7.8,99,49,10,29.71,29.65,7,2,18,0.01
2014-7-2,66.2,61.5,0.0,52.4,47.5,14.4,70,59,47,29.98,0.00,2,0,8,0.01
2014-7-3,85.5,67.4,51.4,57.4,45.4,4.6,92,52,10,30.12,29.97,2,0,8,0.00
2014-7-4,86.4,70.4,52.2,62.6,54.3,40.9,92,61,35,30.17,30.08,3,1,9,0.00
2014-7-5,73.4,66.0,61.3,69.0,52.5,12.9,99,69,10,30.09,29.86,3,1,15,0.50
2014-7-6,90.3,77.1,65.8,75.7,46.6,14.4,99,50,10,29.86,29.59,3,1,11,0.00
2014-7-7,89.4,79.0,67.6,70.5,48.3,10.5,68,39,10,29.72,29.55,3,1,9,0.00
2014-7-8,84.2,73.4,64.9,63.4,52.0,24.9,74,49,19,29.78,29.56,5,2,17,0.00
2014-7-9,88.5,72.6,57.9,62.6,55.9,45.9,75,57,38,29.91,29.77,3,1,10,0.00
2014-7-10,88.7,74.5,62.1,65.0,59.0,52.1,78,60,42,29.99,29.91,2,1,9,0.00
2014-7-11,80.2,71.7,65.1,63.4,58.7,54.9,76,64,51,29.98,29.85,3,1,11,0.00
2014-7-12,85.6,74.8,67.3,76.0,52.4,18.5,99,56,10,29.93,29.77,3,0,8,0.48
2014-7-13,88.9,75.3,63.5,72.6,54.6,16.9,99,60,10,29.88,29.77,3,1,13,0.01
2014-7-14,77.0,68.4,57.2,60.5,52.5,46.9,79,58,42,29.89,29.77,4,2,16,0.00
2014-7-15,78.3,62.7,53.4,56.1,51.1,47.5,85,67,42,29.96,29.88,3,1,11,0.00
2014-7-16,83.1,66.9,50.5,58.8,53.3,46.2,87,64,41,29.95,29.85,2,0,8,0.00
2014-7-17,86.5,70.0,52.7,61.4,55.1,45.4,87,62,37,29.98,29.91,2,0,8,0.00
2014-7-18,85.5,72.7,59.5,64.1,59.1,52.0,82,64,46,30.00,29.89,2,0,9,0.00
2014-7-19,86.0,74.0,65.3,65.8,60.2,54.3,81,63,47,29.92,29.83,2,0,8,0.00
2014-7-20,88.7,75.9,63.7,69.6,61.0,48.4,81,62,38,29.88,29.77,2,1,14,0.00
2014-7-21,92.7,80.2,68.4,74.2,62.5,45.1,75,56,33,29.84,29.77,4,1,14,0.00
2014-7-22,95.5,83.1,70.9,72.3,59.5,39.3,73,47,19,29.99,29.77,3,1,10,0.01
2014-7-23,88.9,74.8,63.0,62.5,54.4,37.0,85,51,24,30.09,29.98,4,1,11,0.00
2014-7-24,86.2,70.9,59.2,66.2,58.0,45.9,88,65,41,30.05,29.78,4,1,9,0.04
2014-7-25,83.5,71.6,63.0,59.5,50.7,18.8,71,51,11,29.93,29.68,3,1,13,0.81
2014-7-26,93.4,77.7,66.0,71.4,49.9,21.3,68,40,12,29.78,29.67,4,1,11,0.00
2014-7-27,77.9,72.6,65.5,62.0,51.2,18.3,78,50,14,29.93,29.73,5,2,17,0.00
2014-7-28,79.5,68.4,57.9,61.2,53.6,31.4,82,61,24,30.07,29.92,2,1,9,0.00
2014-7-29,84.2,69.7,56.3,61.7,54.8,41.4,84,61,36,30.02,29.93,2,1,10,0.00
2014-7-30,88.2,71.8,57.6,64.7,58.1,49.9,84,64,42,29.98,29.92,2,0,7,0.00
2014-7-31,89.4,72.9,58.6,66.0,57.6,45.9,86,61,38,29.98,29.90,3,0,10,0.00
2014-8-1,91.2,73.9,57.6,67.2,59.2,48.4,85,63,40,29.98,29.91,2,0,6,0.00
2014-8-2,91.8,75.3,59.0,68.5,60.3,48.8,85,62,39,30.03,29.95,3,0,7,0.00
2014-8-3,93.6,74.0,63.3,70.7,59.2,32.8,82,63,19,30.04,29.90,2,0,8,0.57
2014-8-4,92.7,75.0,64.6,72.1,58.4,34.1,91,59,22,29.97,29.88,4,0,16,0.26
2014-8-5,83.8,71.0,62.2,67.3,48.8,15.2,91,51,10,29.99,29.91,2,1,8,0.01
2014-8-6,73.6,68.4,65.8,48.0,36.3,11.9,50,33,10,29.98,29.89,4,1,8,0.28
2014-8-7,74.5,69.0,65.8,44.7,28.4,10.0,46,25,10,29.90,29.86,7,3,17,0.01
2014-8-8,82.4,72.6,64.2,65.0,39.8,8.1,75,39,10,29.95,29.88,6,2,13,0.00
2014-8-9,86.5,72.5,0.0,67.9,54.2,25.8,82,54,17,29.96,29.89,4,2,10,0.00
2014-8-10,84.9,72.6,62.1,67.6,55.1,23.1,81,57,15,29.98,29.87,3,1,8,0.00
2014-8-11,77.5,69.6,63.0,59.7,48.2,13.8,78,51,10,29.88,29.83,4,1,13,0.00
2014-8-12,82.8,69.2,57.2,60.1,51.5,28.5,80,56,22,29.94,29.86,3,1,10,0.00
2014-8-13,88.9,72.0,55.8,65.9,59.3,50.5,86,66,43,30.00,29.91,3,1,8,0.00
2014-8-14,83.8,71.4,59.5,67.7,59.6,48.8,84,68,48,30.00,29.89,4,1,9,0.00
2014-8-15,76.8,68.2,0.0,58.6,53.2,46.9,77,58,3,29.94,29.80,2,0,8,0.04
2014-8-16,86.7,73.3,64.9,67.3,47.8,15.1,74,46,10,29.93,29.86,4,1,10,0.00
2014-8-17,92.8,76.3,62.8,73.4,54.2,16.6,83,51,10,29.98,29.88,3,0,8,0.00
2014-8-18,90.9,77.8,66.7,73.4,60.0,36.6,76,56,22,29.94,29.71,2,1,8,0.00
2014-8-19,89.8,77.1,67.3,69.9,59.3,46.8,84,55,37,29.82,29.70,3,1,12,0.00
2014-8-20,74.8,69.2,62.4,62.3,52.6,46.3,83,57,37,29.92,29.80,3,0,8,0.12
2014-8-21,90.0,77.3,67.8,72.8,49.2,15.9,99,48,10,29.92,29.82,2,1,9,0.06
2014-8-22,97.9,81.4,72.5,80.0,61.4,20.3,87,56,10,29.95,29.85,2,0,5,0.07
2014-8-23,85.8,75.7,70.9,70.0,55.0,17.7,88,57,10,30.00,29.88,5,2,13,0.54
2014-8-25,97.9,81.4,0.0,77.0,65.6,36.6,82,61,17,30.04,29.90,2,0,7,0.64
2014-8-26,86.2,69.9,0.0,67.5,62.8,57.2,99,76,50,30.20,29.90,3,0,17,0.79
2014-8-27,78.1,70.2,63.7,66.5,61.3,56.3,86,74,58,29.99,29.87,4,1,8,0.00
2014-8-28,74.8,69.0,64.8,59.7,56.3,52.0,80,65,46,29.90,29.71,5,2,12,0.26
2014-8-29,89.1,73.8,66.0,73.8,62.4,27.1,99,75,13,29.76,29.56,4,1,15,0.96
2014-8-30,86.0,72.6,65.1,68.8,61.4,49.4,95,71,39,29.70,29.57,3,1,10,0.01
2014-8-31,88.7,74.8,60.8,75.9,65.9,50.7,99,77,35,29.71,29.49,8,1,31,1.07
2014-9-1,81.3,71.1,64.2,67.7,61.7,53.0,99,74,47,29.68,29.47,6,2,20,0.14
2014-9-2,85.5,71.6,60.4,64.3,60.5,55.1,93,70,43,29.77,29.67,3,1,14,0.04
2014-9-3,87.3,73.5,58.5,74.0,66.1,56.0,93,79,61,29.78,29.59,3,1,11,0.00
2014-9-4,95.0,81.6,72.5,79.4,72.9,67.8,87,76,59,29.69,29.56,3,1,15,0.00
2014-9-5,77.2,64.5,55.2,72.7,59.1,52.9,93,83,63,30.00,29.69,3,1,11,0.11
2014-9-6,82.6,63.5,49.5,58.5,53.8,47.1,94,73,42,30.07,29.98,2,1,6,0.00
2014-9-7,82.2,65.8,51.1,61.6,56.3,49.6,95,74,45,30.04,29.88,2,0,6,0.00
2014-9-8,72.3,63.5,51.6,65.5,59.0,50.0,95,86,68,29.90,29.67,3,0,10,0.00
2014-9-9,74.5,67.2,64.0,66.0,63.0,59.6,95,86,71,29.71,29.47,5,2,15,0.73
2014-9-10,71.6,63.4,50.5,68.3,56.5,45.3,99,79,60,29.84,29.33,5,2,18,0.24
2014-9-11,62.8,52.2,47.1,50.4,45.6,42.5,89,79,61,30.13,29.84,3,1,11,0.00
2014-9-12,50.5,47.2,44.1,46.3,44.8,42.5,98,91,82,30.23,30.11,2,1,8,0.28
2014-9-13,67.6,55.5,0.0,46.7,43.6,36.9,99,65,43,29.93,0.00,2,1,8,0.30
2014-9-14,74.3,57.6,45.7,55.5,49.7,42.6,91,77,50,29.81,29.66,2,1,54,0.00
2014-9-15,64.4,55.1,0.0,55.8,50.7,44.7,97,85,62,30.00,29.61,3,1,14,0.00
2014-9-16,76.1,55.0,38.5,53.4,46.3,38.0,99,76,40,30.00,29.81,2,0,8,0.00
2014-9-17,78.3,61.2,47.1,58.2,53.4,46.5,98,78,47,29.82,29.70,3,0,6,0.00
2014-9-18,78.1,61.9,47.5,59.9,54.7,47.2,99,80,50,29.88,29.78,4,1,11,0.00
2014-9-19,78.8,67.4,52.2,66.1,60.3,50.1,94,79,64,29.81,29.57,3,2,11,0.00
2014-9-20,85.3,71.6,59.7,68.3,64.4,56.3,99,80,46,29.70,29.53,4,2,16,0.11
2014-9-21,68.7,59.3,52.0,56.6,52.5,49.3,95,79,56,29.98,29.68,4,2,12,0.00
2014-9-22,80.1,59.3,42.6,56.0,50.9,42.4,99,77,42,30.08,29.96,2,0,8,0.00
2014-9-23,74.8,61.1,47.7,58.2,52.5,46.8,98,76,49,30.06,29.94,3,1,8,0.00
2014-9-24,64.9,61.6,58.1,61.9,57.1,52.7,93,85,77,30.02,29.93,1,0,5,0.04
2014-9-25,82.6,67.7,56.7,62.8,58.4,55.3,95,75,46,30.00,29.89,2,0,10,0.02
2014-9-26,84.0,68.9,54.3,64.5,59.6,53.2,97,75,49,29.95,29.87,3,1,10,0.00
2014-9-27,85.3,70.1,57.7,65.8,61.0,56.9,98,76,45,29.96,29.84,4,1,12,0.00
2014-9-28,87.3,69.2,55.6,67.7,59.8,54.6,97,75,43,29.92,29.80,2,0,6,0.00
2014-9-29,84.2,68.0,54.3,66.0,60.2,53.5,98,79,51,29.84,29.70,3,1,9,0.00
2014-9-30,67.8,58.4,53.2,58.8,54.6,51.2,99,88,71,29.92,29.66,6,4,14,0.00
2014-10-1,72.9,61.6,52.7,65.6,58.3,50.5,99,89,77,29.91,29.76,5,1,11,0.09
2014-10-2,66.7,62.6,54.5,66.5,61.7,50.7,99,97,87,29.82,29.65,3,1,11,0.38
2014-10-3,54.5,46.9,37.8,50.5,37.5,29.4,99,70,55,29.98,29.73,7,4,24,0.01
2014-10-4,54.9,43.3,34.5,38.3,32.4,26.6,80,66,51,29.90,29.77,6,3,21,0.00
2014-10-5,63.9,50.9,39.7,47.0,39.2,31.1,86,65,48,29.77,29.59,6,2,17,0.00
2014-10-6,64.2,53.0,42.6,48.3,43.0,36.8,96,71,47,29.67,29.57,5,2,16,0.00
2014-10-7,68.2,57.1,48.9,50.7,45.6,41.7,86,67,44,29.93,29.58,6,2,17,0.00
2014-10-8,71.2,57.0,42.8,47.2,40.5,35.0,89,58,28,30.06,29.93,16,2,115,0.00
2014-10-9,64.4,54.5,43.9,48.1,40.9,30.7,97,63,34,30.18,30.03,3,1,9,0.01
2014-10-10,60.4,47.9,35.4,42.2,37.7,34.0,95,69,48,30.23,30.16,3,1,8,0.00
2014-10-11,62.8,49.2,33.8,43.9,37.9,32.3,95,68,40,30.23,30.06,2,0,7,0.00
2014-10-12,55.2,46.3,34.3,51.2,44.1,33.1,99,92,77,30.06,29.78,4,1,11,0.01
2014-10-13,54.7,52.6,51.1,54.1,51.3,48.3,99,95,89,29.81,29.51,5,2,22,1.07
2014-10-14,53.6,51.7,49.6,48.8,46.1,41.3,89,81,69,29.85,29.48,6,4,22,0.28
2014-10-15,68.9,53.9,41.7,43.6,40.0,34.7,93,62,30,29.93,29.85,5,2,14,0.00
2014-10-16,72.7,55.9,38.1,53.1,45.5,36.8,99,72,38,29.88,29.63,3,1,11,0.00
2014-10-17,60.1,53.0,48.9,50.1,45.9,41.8,87,77,66,30.02,29.65,8,4,20,0.00
2014-10-18,64.0,47.6,38.1,46.2,42.0,37.3,98,82,53,30.19,30.02,4,2,11,0.01
2014-10-19,66.2,50.6,36.5,51.1,44.8,34.7,99,82,56,30.12,29.85,3,1,10,0.00
2014-10-20,70.2,56.8,45.0,50.5,45.8,42.3,92,69,40,30.02,29.85,5,2,14,0.00
2014-10-21,63.1,49.5,37.6,47.1,42.1,37.0,99,78,50,30.20,30.01,5,2,12,0.00
2014-10-22,63.0,51.2,37.9,48.1,43.1,37.1,98,76,54,30.25,30.08,4,2,14,0.00
2014-10-23,65.1,53.5,47.3,59.3,50.9,44.1,99,91,71,30.11,29.98,2,0,8,0.26
2014-10-24,62.4,55.1,45.9,62.2,54.8,45.4,99,99,99,30.01,29.87,2,1,9,0.01
2014-10-25,70.2,57.8,46.4,55.0,42.4,36.7,99,60,32,30.08,29.94,4,1,11,0.01
2014-10-26,67.5,53.2,39.0,48.7,39.7,35.3,91,63,37,30.06,29.61,7,2,19,0.00
2014-10-27,79.0,63.0,50.2,62.6,55.1,44.7,93,76,56,29.79,29.49,6,2,16,0.00
2014-10-28,53.4,48.4,42.1,45.5,38.8,35.7,87,70,58,30.04,29.79,8,5,22,0.00
2014-10-29,51.4,42.7,0.0,38.0,35.0,32.3,93,74,59,30.18,29.90,6,2,20,0.00
2014-10-30,61.7,47.7,34.7,43.6,38.7,32.6,94,73,48,30.00,29.81,6,1,14,0.00
2014-10-31,45.5,35.3,24.6,35.8,23.4,18.1,83,63,41,30.26,30.00,7,3,16,0.00
2014-11-1,47.7,32.4,16.9,28.2,22.7,14.8,94,70,39,30.28,30.06,4,1,11,0.00
2014-11-2,60.4,45.8,34.7,34.7,30.5,26.6,72,57,35,30.07,29.76,5,2,16,0.00
2014-11-3,64.9,54.4,43.0,57.4,44.9,32.6,91,71,56,29.77,29.61,7,2,21,0.01
2014-11-4,59.9,48.1,40.6,53.3,39.1,35.8,91,73,47,29.88,29.64,7,3,21,0.00
2014-11-5,60.4,47.9,35.8,47.4,39.5,33.0,92,74,50,30.95,29.66,11,2,18,0.00
2014-11-6,48.4,39.9,27.3,41.2,32.7,24.6,93,76,55,30.08,29.72,11,5,22,0.00
2014-11-7,54.0,41.1,24.8,45.2,32.5,23.1,97,74,49,30.05,29.55,8,1,21,0.00
2014-11-8,49.3,40.9,32.9,44.0,30.5,24.8,82,67,49,29.87,29.59,11,5,24,0.00
2014-11-9,53.2,44.4,36.3,38.5,35.0,30.8,81,70,55,29.75,29.52,5,2,12,0.00
2014-11-10,63.5,47.2,32.4,47.7,40.0,29.7,94,78,55,29.55,29.18,9,4,21,0.00
2014-11-11,34.0,27.5,21.2,31.0,23.1,14.0,94,83,72,30.10,29.54,9,7,21,0.00
2014-11-12,27.0,22.5,17.4,22.3,16.0,11.3,92,76,63,30.16,30.09,7,4,17,0.00
2014-11-13,27.3,23.0,14.5,22.8,18.0,11.2,91,81,70,30.21,30.15,6,4,14,0.00
2014-11-14,27.3,17.9,9.1,15.2,11.4,6.9,90,76,54,30.21,30.11,4,2,10,0.00
2014-11-15,30.2,19.7,10.2,24.6,16.6,7.5,97,88,61,30.14,29.92,5,1,10,0.00
2014-11-16,25.5,17.9,11.1,24.8,14.1,5.9,97,85,71,29.94,29.76,5,2,13,0.00
2014-11-17,16.7,11.8,6.8,11.0,7.1,2.4,90,81,70,29.91,29.75,9,5,23,0.00
2014-11-18,23.4,14.5,4.1,16.1,9.1,0.7,86,79,65,29.94,29.59,6,3,15,0.00
2014-11-19,27.5,23.0,16.2,22.4,17.2,11.3,86,78,65,29.88,29.55,9,5,24,0.00
2014-11-20,25.9,17.0,4.6,17.2,11.6,2.1,91,79,64,30.11,29.86,5,3,14,0.00
2014-11-21,35.1,22.6,3.2,29.7,16.7,1.0,93,79,58,30.12,29.81,3,1,13,0.00
2014-11-22,54.1,44.3,33.6,52.7,42.2,29.6,99,93,78,29.81,29.40,5,2,11,0.00
2014-11-23,54.0,48.2,32.9,52.0,47.4,32.2,99,97,90,29.41,29.11,10,3,17,0.35
2014-11-24,32.9,24.9,17.2,32.7,22.3,12.9,99,90,81,29.76,29.11,10,6,24,0.00
2014-11-25,29.3,21.1,11.8,23.0,17.0,9.7,93,84,66,29.94,29.75,7,2,13,0.01
2014-11-26,33.4,27.6,21.9,30.8,25.0,19.5,96,90,82,30.13,29.75,8,4,17,0.00
2014-11-27,24.8,10.6,1.6,21.3,6.0,-2.7,90,81,68,30.31,30.08,6,3,14,0.00
2014-11-28,32.9,23.5,11.8,28.2,19.7,4.7,97,85,68,30.08,29.46,4,2,11,0.01
2014-11-29,48.4,38.0,24.8,43.3,34.7,23.6,96,88,73,29.46,29.27,4,2,9,0.01
2014-11-30,35.4,20.6,10.8,34.4,15.8,3.8,96,81,73,30.27,29.38,9,6,19,0.00
2014-12-1,18.3,11.2,6.1,6.0,3.0,-1.7,82,69,54,30.52,30.25,8,3,24,0.00
2014-12-2,33.1,22.4,9.7,24.7,16.5,4.8,87,78,61,30.25,29.80,4,2,10,0.00
2014-12-3,33.6,25.1,19.6,20.4,16.7,14.5,84,71,50,30.15,29.85,5,2,14,0.00
2014-12-4,35.1,28.5,20.1,28.5,21.1,16.6,87,74,50,30.14,29.94,6,2,14,0.00
2014-12-5,39.0,33.9,31.5,35.4,31.8,28.1,97,92,87,30.12,29.91,3,1,7,0.00
2014-12-6,41.7,32.6,26.4,31.6,27.6,23.4,97,82,60,30.40,30.12,4,2,12,0.00
2014-12-7,38.7,31.7,24.8,32.7,28.8,22.6,97,89,78,30.38,29.94,3,2,16,0.04
2014-12-8,40.8,34.3,25.7,37.1,31.9,22.3,99,91,78,30.07,29.84,8,4,18,0.00
2014-12-9,34.2,27.3,19.8,29.6,24.0,17.3,95,87,78,30.25,30.06,6,2,13,0.00
2014-12-10,33.3,29.8,26.8,28.9,26.7,24.7,94,88,80,30.20,30.08,4,1,8,0.00
2014-12-11,30.9,29.2,0.0,29.9,27.4,24.3,98,92,87,30.08,29.87,2,1,5,0.00
2014-12-12,42.6,34.6,30.4,38.3,33.0,29.9,99,94,84,29.94,29.80,3,1,6,0.00
2014-12-13,52.3,44.8,34.2,50.2,44.0,33.9,99,97,89,29.82,29.63,4,1,8,0.00
2014-12-14,56.8,49.9,44.6,53.2,48.5,43.4,99,95,87,29.65,29.47,4,1,8,0.00
2014-12-15,50.0,47.3,0.0,48.7,46.3,37.0,99,95,91,29.94,29.33,7,2,18,0.41
2014-12-16,39.6,24.7,16.7,37.2,20.9,12.6,91,85,82,30.54,29.95,10,6,18,0.01
2014-12-17,26.8,19.6,12.6,19.9,16.1,10.2,95,86,72,30.58,30.49,5,2,13,0.00
2014-12-18,27.9,20.6,12.9,23.1,18.2,11.0,96,91,81,30.55,30.45,2,0,4,0.00
2014-12-19,32.7,28.3,23.0,29.5,25.9,19.2,94,91,85,30.54,30.44,2,1,6,0.00
2014-12-20,34.2,31.8,27.9,32.1,30.4,25.9,98,94,84,30.45,30.35,2,1,8,0.01
2014-12-21,40.5,37.6,33.4,35.7,32.3,26.8,86,81,70,30.35,30.03,4,2,11,0.01
2014-12-22,38.8,36.9,35.4,34.7,32.9,30.4,88,85,81,30.04,29.74,7,4,17,0.43
2014-12-23,37.2,35.1,32.9,31.5,28.7,25.6,82,77,69,30.07,29.72,4,2,9,0.19
2014-12-24,36.0,33.5,30.6,31.1,29.0,27.2,88,83,79,30.05,29.93,5,3,14,0.07
2014-12-25,31.1,30.5,29.5,28.0,27.3,26.4,89,88,86,30.03,29.99,6,2,13,0.00
2014-12-26,41.0,35.6,32.0,36.3,33.5,30.2,98,92,82,30.26,30.07,3,2,6,0.00
2014-12-27,34.2,27.2,17.4,33.7,25.1,15.7,99,92,83,30.48,30.18,5,0,11,0.06
2014-12-28,33.6,24.0,13.6,26.3,20.5,12.5,96,87,72,30.52,30.41,0,0,0,0.00
2014-12-29,26.2,19.4,5.7,23.9,15.6,1.7,95,85,65,30.89,30.52,5,2,9,0.00
2014-12-30,12.7,5.7,-0.4,3.5,-1.1,-4.3,84,74,56,31.05,30.91,6,3,11,0.00
2014-12-31,23.4,10.3,-2.7,11.5,3.3,-6.6,85,74,58,30.94,30.41,7,3,14,0.00
2015-1-1,37.9,26.2,12.4,24.0,20.3,8.1,88,78,57,30.40,30.24,7,2,13,0.00
2015-1-2,31.3,24.1,14.0,26.9,21.1,12.9,98,88,73,30.53,30.28,4,1,10,0.00